Weather History for KDOV - September, 2012

Change the Weather History Date:

Wednesday, September 26, 2012

  Actual Average Record
Temperature  
Mean Temperature 72 °F -  
Max Temperature 84 °F 76 °F 94 °F (1970)
Min Temperature 62 °F 56 °F 39 °F (1950)
Cooling Degree Days 8    
Growing Degree Days 22 (Base 50)    
Moisture  
Dew Point 59 °F    
Average Humidity 67    
Maximum Humidity 83    
Minimum Humidity 43    
Precipitation  
Precipitation 0.00 in - - ()
Sea Level Pressure  
Sea Level Pressure 30.10 in    
Wind  
Wind Speed 12 mph (SSW)    
Max Wind Speed 16 mph    
Max Gust Speed 25 mph    
Visibility 10 miles    
Events Rain    
Averages and records for this station are not official NWS values.
T = Trace of Precipitation, MM = Missing Value Source: NWS Daily Summary

Daily Weather History Graph

Daily Weather History Graph

Search for Another Location

Airport or City:

Trip Planner

Search our weather history database for the weather conditions in past years. The results will help you decide how hot, cold, wet, or windy it might be!

Date:

Astronomy

Sep. 26, 2012 Rise Set
Actual Time 6:53 AM EDT 6:51 PM EDT
Civil Twilight 6:26 AM EDT 7:18 PM EDT
Nautical Twilight 5:55 AM EDT 7:49 PM EDT
Astronomical Twilight 5:24 AM EDT 8:20 PM EDT
Moon 4:48 PM EDT (9/26) 3:18 AM EDT (9/26)
Length of Visible Light 12h 51m
Length of Day
11h 58m
Waxing Gibbous, 88% of the Moon is Illuminated
Sep 26
Waxing Gibbous
Sep 29
Full
Oct 8
Last Quarter
Oct 15
New
Oct 21
First Quarter

Hourly Weather History & Observations

Time (EDT) Temp. Heat Index Dew Point Humidity Pressure Visibility Wind Dir Wind Speed Gust Speed Precip Events Conditions
12:35 AM 62.6 °F - 53.6 °F 72% 30.15 in 10.0 mi SSE 12.7 mph - N/A Rain Light Rain
12:46 AM 62.6 °F - 55.4 °F 77% 30.14 in 10.0 mi SSE 9.2 mph - N/A   Mostly Cloudy
12:55 AM 63.3 °F - 55.0 °F 74% 30.14 in 10.0 mi SSE 8.1 mph - 0.00 in   Mostly Cloudy
1:55 AM 64.0 °F - 55.8 °F 74% 30.13 in 10.0 mi SSE 10.4 mph - N/A   Overcast
2:55 AM 64.0 °F - 56.7 °F 77% 30.11 in 10.0 mi South 12.7 mph - N/A   Overcast
3:55 AM 64.4 °F - 57.6 °F 78% 30.11 in 10.0 mi South 10.4 mph - N/A   Overcast
4:55 AM 64.2 °F - 57.7 °F 79% 30.11 in 10.0 mi South 12.7 mph - N/A   Mostly Cloudy
5:51 AM 66.2 °F - 57.2 °F 73% 30.09 in 10.0 mi South 12.7 mph - N/A Rain Light Rain
5:55 AM 65.3 °F - 57.0 °F 75% 30.09 in 10.0 mi South 12.7 mph - 0.00 in Rain Light Rain
6:11 AM 64.4 °F - 57.2 °F 77% 30.10 in 10.0 mi SSW 10.4 mph - N/A   Overcast
6:55 AM 63.5 °F - 58.1 °F 83% 30.12 in 10.0 mi South 6.9 mph - 0.00 in   Mostly Cloudy
7:55 AM 64.2 °F - 57.6 °F 79% 30.12 in 10.0 mi SSW 8.1 mph - N/A   Clear
8:55 AM 67.6 °F - 58.5 °F 72% 30.12 in 10.0 mi South 15.0 mph - N/A   Clear
9:55 AM 71.6 °F - 59.0 °F 64% 30.12 in 10.0 mi SSW 11.5 mph - N/A   Partly Cloudy
10:55 AM 74.7 °F - 59.7 °F 60% 30.11 in 10.0 mi SSW 16.1 mph - N/A   Clear
11:55 AM 78.1 °F - 60.4 °F 54% 30.12 in 10.0 mi SSW 13.8 mph - N/A   Clear
12:55 PM 81.0 °F 81.9 °F 61.7 °F 52% 30.09 in 10.0 mi SSW 15.0 mph - N/A   Clear
1:55 PM 82.9 °F 83.7 °F 61.9 °F 49% 30.07 in 10.0 mi WSW 15.0 mph 25.3 mph N/A   Clear
2:55 PM 83.7 °F 83.9 °F 60.8 °F 46% 30.06 in 10.0 mi WSW 13.8 mph - N/A   Clear
3:55 PM 83.3 °F 83.1 °F 58.5 °F 43% 30.05 in 10.0 mi SW 13.8 mph - N/A   Clear
4:55 PM 82.0 °F 82.4 °F 59.7 °F 47% 30.05 in 10.0 mi SSW 15.0 mph - N/A   Clear
5:55 PM 79.0 °F - 61.7 °F 55% 30.07 in 10.0 mi South 12.7 mph - N/A   Mostly Cloudy
6:55 PM 75.9 °F - 62.2 °F 62% 30.08 in 10.0 mi SSW 12.7 mph - N/A   Overcast
7:55 PM 73.8 °F - 62.8 °F 68% 30.09 in 10.0 mi South 9.2 mph - N/A   Overcast
8:55 PM 73.4 °F - 62.8 °F 69% 30.10 in 10.0 mi South 12.7 mph - N/A   Overcast
9:55 PM 72.1 °F - 63.1 °F 73% 30.10 in 10.0 mi South 10.4 mph - N/A   Overcast
10:55 PM 71.2 °F - 63.9 °F 77% 30.10 in 10.0 mi South 11.5 mph - N/A   Mostly Cloudy
11:55 PM 71.1 °F - 64.8 °F 80% 30.10 in 10.0 mi SSW 12.7 mph - N/A   Clear